Tracking 20628 objects as of 6-Apr-2020
HD Live streaming from Space Station
objects crossing your sky now

METEOR PRIRODA

Track METEOR PRIRODA now!
10-day predictions
METEOR PRIRODA is classified as:


NORAD ID: 12585
Int'l Code: 1981-065A
Perigee: 497.2 km
Apogee: 518.9 km
Inclination: 97.5 °
Period: 94.6 minutes
Semi major axis: 6879 km
RCS: 4.6163 m2 (large)
Launch date: July 10, 1981
Source: Commonwealth of Independent States (former USSR) (CIS)
Launch site: TYURATAM MISSILE AND SPACE COMPLEX (TTMTR)
aabbcc
Your satellite tracking list
Your tracking list is empty




NASA's NSSDC Master Catalog

Two Line Element Set (TLE):
1 12585U 81065A   20096.85558045 +.00000550 +00000-0 +27471-4 0  9993
2 12585 097.5438 085.2372 0015825 065.4138 294.8744 15.21633880112069
Source of the keplerian elements: AFSPC